Preview of NWS' New Version of Forecast
This preview is not operational and should not be used for support decisions.

Regional Weather Roundup (RWR)

Issued by National Weather Service (NWS)

                            
000
ASUS46 KPQR 192310
RWROR 

OREGON REGIONAL WEATHER ROUNDUP
NATIONAL WEATHER SERVICE PORTLAND OR
400 PM PDT MON AUG 19 2019

NOTE: "FAIR" INDICATES FEW OR NO CLOUDS BELOW 12,000 FEET WITH
NO SIGNIFICANT WEATHER AND/OR OBSTRUCTIONS TO VISIBILITY.

ORZ001>013-200000-
NORTHWEST OREGON

  
CITY           SKY/WX    TMP DP  RH WIND       PRES   REMARKS
ASTORIA        MOSUNNY   70  55  59 NW9       30.01F                  
TILLAMOOK      SUNNY     73  54  49 NW12      30.00F                  
NEWPORT        SUNNY     70  57  64 NW14G20   30.02S                  
FLORENCE       FAIR      68  54  60 NW13G18   29.97F                  
PORTLAND       MOSUNNY   79  54  41 NW15      29.96F                  
VANCOUVER WA   SUNNY     79  53  40 VRB7      29.96F                  
SCAPPOOSE      SUNNY     78  55  44 N10       29.95F                  
HILLSBORO      SUNNY     77  55  46 VRB6      29.96F                  
AURORA         SUNNY     81  52  36 N6        29.96F                  
MCMINNVILLE    SUNNY     81  52  36 E6        29.94F                  
SALEM          SUNNY     80  54  40 CALM      29.94F                  
CORVALLIS      SUNNY     81  58  45 CALM      29.95F                  
EUGENE         MOSUNNY   81  56  42 N9        29.95F                  
CRESWELL       SUNNY     79  57  47 NW9       29.93F                  
$$

ORZ021-028-200000-
SOUTHWEST OREGON

  
CITY           SKY/WX    TMP DP  RH WIND       PRES   REMARKS
NORTH BEND     SUNNY     68  59  73 N17G25    29.99F                  
BROOKINGS      SUNNY     62  54  74 SW6       30.00S                  
ROSEBURG       SUNNY     83  55  38 N10       29.92F                  
SEXTON SUMMIT  SUNNY     79  51  37 CALM      30.04F                  
GRANTS PASS    FAIR      90  48  24 VRB3      29.90S                  
MEDFORD        SUNNY     92  48  22 W12       29.86F                  
$$

ORZ014>016-041-200000-
COLUMBIA GORGE

  
CITY           SKY/WX    TMP DP  RH WIND       PRES   REMARKS
TROUTDALE      SUNNY     80  53  39 W3        29.95F                  
HOOD RIVER     SUNNY     81  48  32 NW10G22   29.89S                  
THE DALLES     SUNNY     88  50  27 NW17      29.84F                  
$$

ORZ029>031-041-044-049-050-061>064-502-503-505>511-200000-
EASTERN OREGON

  
CITY           SKY/WX    TMP DP  RH WIND       PRES   REMARKS
MADRAS         SUNNY     86  37  17 N3        29.95F                  
REDMOND        SUNNY     88  39  17 N10       29.95F                  
BEND           SUNNY     88  37  16 N7G15     29.96F                  
PRINEVILLE     SUNNY     86  36  16 NW7G17    29.96S                  
KLAMATH FALLS  MOSUNNY   85  37  18 E5        30.01F                  
LAKEVIEW       SUNNY     84  27  12 SE10      30.06F                  
HERMISTON      SUNNY     91  49  23 VRB5      29.84F                  
PENDLETON      SUNNY     89  43  20 NW8       29.89S                  
JOHN DAY       SUNNY     89  34  14 W12       29.98S                  
MEACHAM        SUNNY     79  42  26 VRB3      30.02S                  
LA GRANDE      SUNNY     90  44  20 W9        29.93S                  
BAKER CITY     SUNNY     90  45  21 NW12      29.95F                  
BURNS          SUNNY     87  42  20 S3        30.00F                  
ROME             N/A     95  28   9 NW7       29.94F                  
ONTARIO        MOSUNNY   97  47  18 VRB6      29.85F HX  93           
$$